CW7710 Weather Reports


time (UTC)temp
F
wind
direction
speed
knots
gust
knots
rain 1hr
in
rain 24hr
in
rain mn
in
humidity
%
barometer
mb
20260508043325 48 270 2.6 0.0 0.00 0.00 0.00 65 1015.4
20260508042334 49 326 1.7 0.0 0.00 0.00 0.00 63 1016.0
20260508041358 50 239 3.5 0.0 0.00 0.00 0.00 61 1015.9
20260508035405 50 176 2.6 0.0 0.00 0.00 0.00 60 1015.2
20260508034332 51 228 0.9 0.0 0.00 0.00 0.00 57 1014.8
20260508033356 53 330 2.6 0.0 0.00 0.00 0.00 55 1015.2
20260508032359 56 181 3.5 0.0 0.00 0.00 0.00 52 1014.9
20260508031341 59 32 1.7 0.0 0.00 0.00 0.00 48 1014.9
20260508030329 59 30 2.6 0.0 0.00 0.00 0.00 48 1014.8
20260508025337 59 30 0.9 0.0 0.00 0.00 0.00 47 1014.4
20260508024401 60 27 1.7 0.0 0.00 0.00 0.00 47 1014.3
20260508023344 60 36 3.5 0.0 0.00 0.00 0.00 47 1014.1
20260508022328 61 90 0.9 0.0 0.00 0.00 0.00 46 1014.7
20260508021352 61 51 1.7 0.0 0.00 0.00 0.00 48 1014.5
20260508020338 62 59 0.9 0.0 0.00 0.00 0.00 47 1014.4
20260508015342 62 18 3.5 0.0 0.00 0.00 0.00 48 1013.8
20260508014326 62 37 3.5 0.0 0.00 0.00 0.00 47 1013.7
20260508013331 62 24 8.7 0.0 0.00 0.00 0.00 47 1013.7
20260508012339 62 34 9.6 0.0 0.00 0.00 0.00 48 1013.4
20260508011404 61 3 8.7 0.0 0.00 0.00 0.00 48 1013.7
20260508010327 62 46 13.0 0.0 0.00 0.00 0.00 49 1014.6
20260508005331 62 39 15.6 0.0 0.00 0.00 0.00 49 1013.8
20260508004343 63 36 15.6 0.0 0.00 0.00 0.00 48 1013.4
20260508003347 62 19 14.8 0.0 0.00 0.00 0.00 48 1013.7
20260508002330 63 20 16.5 0.0 0.00 0.00 0.00 48 1013.3
20260508001334 64 27 18.2 0.0 0.00 0.00 0.00 46 1013.1
20260508000327 67 13 7.0 0.0 0.00 0.00 0.00 42 1013.4
20260507235328 66 352 7.0 0.0 0.00 0.00 0.00 42 1013.0
20260507234331 67 2 8.7 0.0 0.00 0.00 0.00 40 1012.9
20260507233335 68 341 7.0 0.0 0.00 0.00 0.00 39 1013.0
20260507232359 68 15 11.3 0.0 0.00 0.00 0.00 38 1013.0
20260507231402 68 11 8.7 0.0 0.00 0.00 0.00 39 1012.9
20260507230349 69 346 9.6 0.0 0.00 0.00 0.00 37 1013.0
20260507225332 69 11 7.0 0.0 0.00 0.00 0.00 38 1012.4
20260507224336 69 4 6.1 0.0 0.00 0.00 0.00 36 1012.3
20260507223341 69 8 8.7 0.0 0.00 0.00 0.00 37 1012.4
20260507222329 69 333 8.7 0.0 0.00 0.00 0.00 37 1012.5
20260507221334 68 26 5.2 0.0 0.00 0.00 0.00 37 1012.3
20260507220339 69 16 7.8 0.0 0.00 0.00 0.00 36 1012.4
20260507215403 69 20 6.1 0.0 0.00 0.00 0.00 37 1012.6
20260507214406 69 30 7.8 0.0 0.00 0.00 0.00 37 1012.7
20260507213332 68 352 7.0 0.0 0.00 0.00 0.00 37 1012.7
20260507212356 68 347 10.4 0.0 0.00 0.00 0.00 38 1012.8
20260507211339 68 334 10.4 0.0 0.00 0.00 0.00 39 1012.8
20260507210327 68 7 8.7 0.0 0.00 0.00 0.00 39 1013.0
20260507205336 68 359 11.3 0.0 0.00 0.00 0.00 39 1013.6
20260507204342 68 55 13.0 0.0 0.00 0.00 0.00 41 1013.6
20260507203326 68 8 11.3 0.0 0.00 0.00 0.00 42 1013.5
20260507202334 68 42 13.9 0.0 0.00 0.00 0.00 43 1013.5
20260507201322 68 338 10.4 0.0 0.00 0.00 0.00 44 1013.3
20260507200329 67 44 8.7 0.0 0.00 0.00 0.00 40 1012.0
20260507195332 67 12 7.8 0.0 0.00 0.00 0.00 40 1013.0
20260507194336 67 26 7.0 0.0 0.00 0.00 0.00 40 1013.0
20260507193401 66 3 8.7 0.0 0.00 0.00 0.00 40 1013.1
20260507192328 66 348 7.0 0.0 0.00 0.00 0.00 40 1013.1
20260507191354 66 354 7.8 0.0 0.00 0.00 0.00 40 1013.1
20260507190341 66 19 6.1 0.0 0.00 0.00 0.00 41 1013.1
20260507185328 66 17 7.8 0.0 0.00 0.00 0.00 40 1013.5
20260507184357 66 20 7.8 0.0 0.00 0.00 0.00 41 1013.6
20260507183326 67 302 7.8 0.0 0.00 0.00 0.00 40 1013.5
20260507182349 66 357 7.8 0.0 0.00 0.00 0.00 41 1013.9
20260507181332 66 326 7.8 0.0 0.00 0.00 0.00 41 1014.0
20260507180357 66 359 7.0 0.0 0.00 0.00 0.00 41 1014.0
20260507175343 65 334 7.0 0.0 0.00 0.00 0.00 44 1013.6
20260507174348 65 340 7.0 0.0 0.00 0.00 0.00 43 1013.6
20260507173357 65 336 9.6 0.0 0.00 0.00 0.00 44 1013.8
20260507172343 66 7 7.0 0.0 0.00 0.00 0.00 44 1014.2
20260507171332 66 300 7.0 0.0 0.00 0.00 0.00 43 1014.3
20260507170336 65 316 5.2 0.0 0.00 0.00 0.00 44 1013.6
20260507165340 65 5 4.3 0.0 0.00 0.00 0.00 45 1014.2
20260507164344 65 346 5.2 0.0 0.00 0.00 0.00 45 1014.2
20260507163332 65 344 4.3 0.0 0.00 0.00 0.00 45 1014.1
20260507162336 65 273 4.3 0.0 0.00 0.00 0.00 45 1014.3
20260507161341 64 241 2.6 0.0 0.00 0.00 0.00 47 1013.7
20260507160325 63 181 2.6 0.0 0.00 0.00 0.00 50 1013.6
20260507155336 62 172 1.7 0.0 0.00 0.00 0.00 52 1014.0
20260507154341 61 146 4.3 0.0 0.00 0.00 0.00 53 1014.4
20260507153325 62 41 1.7 0.0 0.00 0.00 0.00 51 1014.3
20260507152329 62 78 1.7 0.0 0.00 0.00 0.00 51 1014.3
20260507151338 60 169 3.5 0.0 0.00 0.00 0.00 54 1014.6
20260507150342 60 270 1.7 0.0 0.00 0.00 0.00 55 1014.1
20260507145327 59 157 1.7 0.0 0.00 0.00 0.00 56 1014.7
20260507144329 59 162 2.6 0.0 0.00 0.00 0.00 56 1014.6
20260507143333 58 223 3.5 0.0 0.00 0.00 0.00 59 1014.0
20260507142345 57 211 2.6 0.0 0.00 0.00 0.00 60 1014.1
20260507141331 56 236 2.6 0.0 0.00 0.00 0.00 62 1014.1
20260507140336 56 162 3.5 0.0 0.00 0.00 0.00 64 1013.9
20260507135340 55 192 3.5 0.0 0.00 0.00 0.00 65 1014.4
20260507134329 54 206 2.6 0.0 0.00 0.00 0.00 66 1014.6
20260507133333 54 165 3.5 0.0 0.00 0.00 0.00 68 1014.4
20260507132338 53 217 4.3 0.0 0.00 0.00 0.00 70 1014.5
20260507131342 51 199 4.3 0.0 0.00 0.00 0.00 71 1013.8
20260507130330 49 181 6.1 0.0 0.00 0.00 0.00 70 1014.1
20260507125335 49 181 5.2 0.0 0.00 0.00 0.00 68 1013.8
20260507124339 50 176 5.2 0.0 0.00 0.00 0.00 66 1014.4
20260507123403 51 132 3.5 0.0 0.00 0.00 0.00 64 1014.4
20260507122330 52 45 2.6 0.0 0.00 0.00 0.00 65 1013.8
20260507121333 52 347 4.3 0.0 0.00 0.00 0.00 66 1013.8
20260507120338 52 163 3.5 0.0 0.00 0.00 0.00 66 1013.8
20260507115353 52 140 5.2 0.0 0.00 0.00 0.00 66 1013.8
20260507114337 53 38 9.6 0.0 0.00 0.00 0.00 66 1013.5
20260507113345 53 33 8.7 0.0 0.00 0.00 0.00 65 1013.7
20260507112348 54 55 10.4 0.0 0.00 0.00 0.00 65 1013.6
20260507111330 52 339 4.3 0.0 0.00 0.00 0.00 68 1013.9
20260507110337 50 31 3.5 0.0 0.00 0.00 0.00 68 1014.4
20260507105329 50 65 2.6 0.0 0.00 0.00 0.00 67 1014.0
20260507104356 50 124 2.6 0.0 0.00 0.00 0.00 67 1013.7
20260507103338 50 72 2.6 0.0 0.00 0.00 0.00 66 1013.6
20260507102345 50 69 2.6 0.0 0.00 0.00 0.00 66 1013.6
20260507101332 49 43 0.9 0.0 0.00 0.00 0.00 65 1013.5
20260507100336 50 43 2.6 0.0 0.00 0.00 0.00 64 1013.6
20260507095341 50 59 1.7 0.0 0.00 0.00 0.00 63 1013.2
20260507094329 51 163 2.6 0.0 0.00 0.00 0.00 62 1013.2
20260507093356 52 169 4.3 0.0 0.00 0.00 0.00 62 1012.9
20260507092342 51 176 6.1 0.0 0.00 0.00 0.00 62 1013.3
20260507091327 51 193 3.5 0.0 0.00 0.00 0.00 62 1013.1
20260507090331 52 198 4.3 0.0 0.00 0.00 0.00 60 1012.8
20260507085334 53 191 4.3 0.0 0.00 0.00 0.00 60 1012.6
20260507084341 53 192 4.3 0.0 0.00 0.00 0.00 59 1012.5
20260507083325 54 196 2.6 0.0 0.00 0.00 0.00 57 1012.5
20260507082330 55 146 1.7 0.0 0.00 0.00 0.00 55 1013.1
20260507081334 58 28 1.7 0.0 0.00 0.00 0.00 52 1012.8
20260507080342 58 28 1.7 0.0 0.00 0.00 0.00 51 1012.9
20260507075405 58 96 0.9 0.0 0.00 0.00 0.00 51 1012.6
20260507074348 58 257 1.7 0.0 0.00 0.00 0.00 51 1012.6
20260507073331 59 328 1.7 0.0 0.00 0.00 0.00 51 1013.4
20260507072335 59 310 2.6 0.0 0.00 0.00 0.00 52 1012.7
20260507071324 58 354 2.6 0.0 0.00 0.00 0.00 53 1012.7
20260507070329 57 277 3.5 0.0 0.00 0.00 0.00 54 1012.6
20260507065333 57 276 6.1 0.0 0.00 0.00 0.00 54 1013.3
20260507064337 57 311 6.1 0.0 0.00 0.00 0.00 54 1013.2
20260507063401 58 295 5.2 0.0 0.00 0.00 0.00 53 1012.9
20260507062328 59 321 7.0 0.0 0.00 0.00 0.00 50 1012.9
20260507061331 59 338 3.5 0.0 0.00 0.00 0.00 49 1012.6
20260507060336 60 272 7.8 0.0 0.00 0.00 0.00 47 1012.8
20260507055400 60 238 9.6 0.0 0.00 0.00 0.00 46 1011.8
20260507054326 61 250 9.6 0.0 0.00 0.00 0.00 43 1011.7
20260507053350 62 250 12.2 0.0 0.00 0.00 0.00 42 1012.1
20260507052353 62 257 7.8 0.0 0.00 0.00 0.00 42 1012.0
20260507051336 61 252 8.7 0.0 0.00 0.00 0.00 44 1012.0
20260507050338 61 302 8.7 0.0 0.00 0.00 0.00 45 1012.1
20260507045326 61 240 12.2 0.0 0.00 0.00 0.00 45 1011.6
20260507044329 61 256 14.8 0.0 0.00 0.00 0.00 45 1011.6